Location: The C. Gantt Observatory
(33.6981°N, 81.6836°W)
Time: 11:48:37
(UTC-05:00)

Daily predictions for brighter satellites

Satellite Brightness Start Highest point End
(mag) Time Altitude Azimuth Time Altitude Azimuth Time Altitude Azimuth
Chunghua 1 4.5 17:41:31 10° W 17:45:15 90° SSE 17:48:56 10° ESE
Meteor 1-26 Rocket 4.4 17:41:25 10° S 17:47:01 82° W 17:52:34 10° N
Cosmos 1763 Rocket 3.4 17:46:22 10° NNW 17:51:33 69° ENE 17:56:37 10° SSE
Meteor 1-28 Rocket 3.1 17:52:00 10° NNE 17:55:42 71° E 17:59:23 10° S
CZ-2C R/B 3.7 17:52:50 10° NNE 17:57:19 67° ESE 18:01:52 10° S
Cosmos 1606 2.9 17:54:34 10° SSE 17:58:12 49° E 18:01:52 10° NNE
Okean 2 Rocket 4.4 17:55:06 10° NNE 17:58:23 20° ENE 18:01:39 10° ESE
GPS 2-05 Rocket1 2.9 17:56:53 10° WSW 17:59:58 59° SSE 18:02:46 13° E
Cosmos 304 Rocket 3.7 17:55:49 10° NNW 18:00:38 83° ENE 18:05:24 10° SSE
Cosmos 972 4.3 17:56:05 10° N 18:00:59 65° ENE 18:05:50 10° SSE
Cosmos 1464 Rocket 4.3 17:56:21 10° SSE 18:02:04 43° E 18:07:50 10° NNE
OAO 3 Copernicus 4.3 17:58:46 10° W 18:03:52 84° N 18:08:51 11° E
Cosmos 1484 Rocket 2.9 18:01:36 10° S 18:05:26 83° W 18:09:21 10° NNW
Cosmos 1908 Rocket 3.4 18:02:29 10° N 18:06:49 71° E 18:11:07 10° SSE
CZ-4 R/B 1.2 18:03:19 10° SSE 18:07:09 68° ENE 18:10:59 10° N
Landsat 4 3.6 18:04:11 10° NNE 18:07:59 71° ESE 18:11:45 10° S
Cosmos 1814 Rocket 4.4 18:03:53 10° NNW 18:09:14 71° WSW 18:14:32 10° S
SKYMED 2 3.9 18:05:06 10° NNE 18:09:17 45° E 18:13:25 10° S
CSL-04 Rocket 4.1 18:06:00 10° S 18:11:13 65° WSW 18:16:31 10° NNW
MTI 3.7 18:09:06 10° NNE 18:12:17 62° E 18:15:28 10° S
METEOR-M 4.3 18:07:35 10° SE 18:12:40 47° ENE 18:17:44 10° N
SL-27 R/B 2.3 18:09:36 10° N 18:12:52 55° ENE 18:16:11 10° SSE
EO 1 Del DPAF 3.5 18:09:57 10° NNE 18:13:39 47° E 18:17:19 10° S
Cosmos 540 Rocket 3.8 18:10:16 10° N 18:15:08 40° ENE 18:19:57 10° SE
Cosmos 968 Rocket 4.3 18:11:24 10° SSE 18:15:49 29° E 18:19:33 13° NE
Cosmos 1503 Rocket 4.0 18:10:57 10° SSW 18:16:14 85° ESE 18:21:30 10° NNE
USA 234 3.3 18:11:19 10° NE 18:17:48 66° SE 18:24:16 10° SSW
Ariane Rocket 3.6 18:13:07 10° S 18:18:09 62° WSW 18:23:11 10° NNW
Cosmos 44 4.3 18:16:08 10° N 18:20:04 25° NE 18:22:42 16° E
Meteor 2-6 Rocket 4.1 18:14:58 10° S 18:20:18 64° E 18:25:47 10° NNE
Cosmos 2082 Rocket 2.5 18:15:38 10° N 18:21:02 44° ENE 18:26:23 10° SE
ERS-2 2.1 18:21:09 10° SSE 18:24:45 55° ENE 18:28:21 10° N
Okean 1-7 3.0 18:21:40 10° S 18:26:02 89° ENE 18:30:26 10° N
Cosmos 841 Rocket 3.8 18:22:46 10° NNW 18:28:02 72° WSW 18:33:14 10° S
Sich 1 Rocket 3.7 18:24:02 10° N 18:28:29 78° W 18:32:56 10° S
Meteor 1-20 Rocket 4.3 18:23:12 10° N 18:28:44 78° W 18:34:11 10° S
Cosmos 1602 4.3 18:26:24 10° NNE 18:29:55 33° E 18:33:25 10° SE
ALOS 2.7 18:26:03 10° SE 18:30:22 39° ENE 18:34:42 10° N
Cosmos 1782 3.5 18:28:00 10° SSW 18:31:57 56° W 18:35:55 10° N
Cosmos 405 Rocket 2.6 18:29:16 10° S 18:33:03 66° E 18:36:33 11° NNE
Cosmos 1513 Rocket 4.5 18:37:25 10° S 18:43:45 88° E 18:50:01 10° N
IUS-13 SRM-1 3.4 18:46:17 10° SW 18:47:55 20° S 18:48:22 19° SSE
Cosmos 1633 3.6 18:44:40 10° NNW 18:48:13 48° W 18:51:45 10° SSW
BREEZE-M DEB (TANK) 3.3 18:43:25 10° WNW 18:49:24 51° SW 18:51:41 16° SSE
Cosmos 1782 Rocket 4.1 18:47:12 10° NNW 18:51:29 59° W 18:55:46 10° S
Gblst 52 Del rocket 4.4 18:46:24 10° SSW 18:51:43 52° SE 18:53:48 35° ENE
Meteor 1-27 Rocket 3.7 18:47:00 10° S 18:52:51 80° E 18:58:49 10° N
YAOGAN 1 3.6 18:48:43 10° S 18:52:52 47° W 18:57:04 10° NNW
FENGYUN 3A 3.5 18:49:47 10° SSE 18:55:10 71° ENE 19:00:33 10° N
CZ-4C R/B 3.4 18:48:45 10° NNW 18:55:31 38° NE 18:58:04 31° E
COSMO-SKYMED 1 3.6 18:53:10 10° N 18:57:18 45° WNW 19:01:26 10° SW
SPOT 3 Rocket 3.5 18:56:02 10° SSE 19:01:15 85° WSW 19:06:30 10° NNW
USA 229 DEB 3.7 18:55:57 10° SSW 19:02:30 58° ESE 19:05:14 36° NE
USA 229 3.7 18:56:04 10° SSW 19:02:36 58° ESE 19:05:17 36° NE
Tiangong 1 3.2 19:08:16 10° WSW 19:09:26 22° W 19:09:26 22° W
Cosmos 2369 Rocket 2.9 19:07:25 10° S 19:11:27 35° SE 19:11:27 35° SE
Cosmos 1833 Rocket 3.2 19:09:09 10° NNW 19:14:40 60° WSW 19:20:10 10° S
Cosmos 1634 Rocket 4.1 19:09:43 10° SSE 19:15:07 48° ESE 19:15:07 48° ESE
Nadezhda 4 Rocket 3.8 19:11:34 10° N 19:17:41 81° E 19:23:48 10° S
OAO 3 Rocket 3.1 19:16:30 10° WSW 19:21:27 90° SE 19:21:32 87° E
Timation 2 Rocket 3.9 19:24:11 10° NNW 19:30:53 68° ENE 19:31:12 67° E
ISS -0.9 19:31:53 10° SW 19:32:19 13° SW 19:32:19 13° SW
Cosmos 1092 Rocket 3.8 19:29:37 10° N 19:35:47 77° E 19:41:59 10° S
BREEZE-M R/B 3.8 19:33:18 10° WNW 19:36:48 55° SW 19:37:04 54° SSW
Thor Agena Rocket 3.7 19:36:30 59° NNW 19:37:17 68° WNW 19:42:23 10° SSW
Meteor 1-11 Rocket 4.3 19:31:56 10° NNW 19:37:36 56° W 19:43:08 10° S
Cosmos 44 Rocket 3.6 19:32:47 10° NW 19:37:32 66° WSW 19:37:32 66° WSW
Cosmos 1943 Rocket 4.2 19:35:39 10° S 19:36:40 15° S 19:36:40 15° S
USA 234 4.4 19:58:40 29° N 20:00:27 33° NW 20:06:09 10° W
CZ-4C R/B 3.8 20:37:08 10° NW 20:43:23 45° W 20:43:23 45° W
